Location: Artiguedieu
(43.5000°N, 0.5454°E)
Time: 14:29:56
(UTC+00:00)

SR - Pass Details

Date: 12 August 2021
Orbit: 581 x 874 km, 66.7° (Epoch: 18 September)

Event Time Altitude Azimuth Distance (km) Brightness Sun altitude
Exits shadow 03:09:36 24° 195° (SSW) 1,674 ? -17.7°
Maximum altitude 03:13:05 69° 118° (ESE) 882 ? -17.2°
Drops below altitude 10° 03:18:29 10° 36° (NE) 2,346 ? -16.5°
Sets 03:20:49 0° 34° (NE) 3,234 ? -16.2°
